QPF
0.00 0.00 0.00 0.00 0.00 0.00 0.00 0.00 0.00 0.00 0.00 0.00 0.00 0.00 0.00 0.00 0.00 0.00 0.00 0.00 0.00 0.00 0.00 0.00 0.00 0.00 0.00 0.00 0.00 0.00 0.00 0.00 0.00 0.00 0.00 0.00 0.00 0.00 0.00 0.00 0.00 0.00 0.00 0.00 0.00 0.00 0.00 0.00 0.00 0.01 0.00 0.04 0.04 0.03
0.00 0.00 0.00 0.00 0.00 0.00 0.00 0.00 0.00 0.00 0.00 0.00 0.00 0.00 0.00 0.00 0.00 0.00 0.00 0.00 0.00 0.00 0.00 0.00 0.00 0.00 0.00 0.00 0.00 0.00 0.00 0.00 0.00 0.00 0.00 0.00 0.00 0.00 0.00 0.00 0.00 0.00 0.00 0.00 0.00 0.00 0.00 0.00 0.00 0.00 0.00 0.09 0.07 0.11
0.00 0.00 0.00 0.00 0.00 0.00 0.00 0.00 0.00 0.00 0.00 0.00 0.00 0.00 0.00 0.00 0.00 0.00 0.00 0.00 0.00 0.00 0.00 0.00 0.00 0.00 0.00 0.00 0.00 0.00 0.00 0.00 0.00 0.00 0.00 0.00 0.00 0.00 0.00 0.00 0.00 0.00 0.00 0.00 0.00 0.00 0.00 0.00 0.00 0.00 0.00 0.03 0.09 0.20
0.00 0.00 0.00 0.00 0.00 0.00 0.00 0.00 0.00 0.00 0.00 0.00 0.00 0.00 0.00 0.00 0.00 0.00 0.00 0.00 0.00 0.00 0.00 0.00 0.00 0.00 0.00 0.00 0.00 0.00 0.00 0.00 0.00 0.00 0.00 0.00 0.00 0.00 0.00 0.00 0.00 0.00 0.00 0.00 0.00 0.01 0.00 0.01 0.00 0.02 0.03 0.04 0.13 0.24
0.00 0.00 0.00 0.00 0.00 0.00 0.00 0.00 0.00 0.00 0.00 0.00 0.00 0.00 0.00 0.00 0.00 0.00 0.00 0.00 0.00 0.00 0.00 0.00 0.00 0.00 0.00 0.00 0.00 0.00 0.00 0.00 0.00 0.00 0.00 0.00 0.00 0.00 0.00 0.00 0.00 0.00 0.00 0.00 0.00 0.00 0.01 0.03 0.02 0.01 0.03 0.08 0.10 0.19
0.00 0.00 0.00 0.00 0.00 0.00 0.00 0.00 0.00 0.00 0.00 0.01 0.00 0.00 0.00 0.00 0.00 0.00 0.00 0.00 0.00 0.00 0.00 0.00 0.00 0.00 0.00 0.00 0.00 0.00 0.00 0.00 0.00 0.00 0.00 0.00 0.00 0.00 0.00 0.00 0.00 0.00 0.00 0.00 0.00 0.00 0.00 0.01 0.02 0.02 0.03 0.07 0.07 0.09
0.00 0.00 0.00 0.00 0.00 0.00 0.00 0.00 0.00 0.00 0.00 0.00 0.00 0.00 0.00 0.00 0.00 0.00 0.00 0.00 0.00 0.00 0.00 0.00 0.00 0.00 0.00 0.00 0.00 0.00 0.00 0.00 0.00 0.00 0.00 0.00 0.00 0.00 0.00 0.00 0.00 0.00 0.00 0.00 0.00 0.00 0.00 0.01 0.01 0.01 0.02 0.03 0.03 0.03
0.00 0.00 0.00 0.00 0.00 0.00 0.00 0.00 0.00 0.00 0.00 0.00 0.00 0.00 0.00 0.00 0.00 0.00 0.00 0.00 0.00 0.00 0.00 0.00 0.00 0.00 0.00 0.00 0.00 0.00 0.00 0.00 0.00 0.00 0.00 0.00 0.00 0.00 0.00 0.00 0.00 0.00 0.00 0.00 0.00 0.00 0.00 0.00 0.01 0.01 0.00 0.00 0.01 0.05
0.00 0.00 0.00 0.00 0.00 0.00 0.00 0.00 0.00 0.00 0.00 0.00 0.00 0.00 0.00 0.00 0.00 0.00 0.00 0.00 0.00 0.00 0.00 0.00 0.00 0.00 0.00 0.00 0.00 0.00 0.00 0.00 0.00 0.00 0.00 0.00 0.00 0.00 0.00 0.00 0.00 0.00 0.00 0.00 0.00 0.00 0.00 0.00 0.00 0.00 0.00 0.00 0.00 0.01
0.00 0.00 0.00 0.00 0.00 0.00 0.00 0.00 0.00 0.00 0.00 0.00 0.00 0.00 0.00 0.00 0.00 0.00 0.00 0.00 0.00 0.00 0.00 0.00 0.00 0.00 0.00 0.00 0.00 0.00 0.00 0.00 0.00 0.00 0.00 0.00 0.00 0.00 0.00 0.00 0.00 0.00 0.00 0.00 0.00 0.00 0.00 0.01 0.00 0.00 0.00 0.00 0.00 0.00
0.00 0.00 0.00 0.00 0.00 0.00 0.00 0.00 0.00 0.00 0.00 0.00 0.00 0.00 0.00 0.00 0.00 0.00 0.00 0.00 0.00 0.00 0.00 0.00 0.00 0.00 0.00 0.00 0.00 0.00 0.00 0.00 0.00 0.00 0.00 0.00 0.00 0.00 0.00 0.00 0.00 0.00 0.00 0.00 0.00 0.00 0.00 0.00 0.00 0.00 0.00 0.00 0.00 0.00
0.00 0.00 0.00 0.00 0.00 0.00 0.00 0.00 0.00 0.00 0.00 0.00 0.00 0.00 0.00 0.00 0.00 0.00 0.00 0.00 0.00 0.00 0.00 0.00 0.00 0.00 0.00 0.00 0.00 0.00 0.00 0.00 0.00 0.00 0.00 0.00 0.00 0.00 0.00 0.00 0.00 0.00 0.00 0.00 0.00 0.00 0.00 0.00 0.00 0.00 0.00 0.00 0.00 0.00
0.00 0.00 0.00 0.00 0.00 0.00 0.00 0.00 0.00 0.00 0.00 0.00 0.00 0.00 0.00 0.00 0.00 0.00 0.00 0.00 0.00 0.00 0.00 0.00 0.00 0.00 0.00 0.00 0.00 0.00 0.00 0.00 0.00 0.00 0.00 0.00 0.00 0.00 0.00 0.00 0.00 0.00 0.00 0.00 0.00 0.00 0.00 0.00 0.00 0.00 0.00 0.00 0.00 0.00
0.00 0.00 0.00 0.00 0.00 0.00 0.00 0.00 0.00 0.00 0.00 0.00 0.00 0.00 0.00 0.00 0.00 0.00 0.00 0.00 0.00 0.00 0.00 0.00 0.00 0.00 0.00 0.01 0.02 0.02 0.01 0.01 0.00 0.00 0.00 0.00 0.00 0.00 0.00 0.00 0.00 0.00 0.00 0.00 0.00 0.00 0.00 0.00 0.00 0.00 0.00 0.00 0.00 0.00
0.00 0.00 0.00 0.00 0.00 0.00 0.00 0.00 0.00 0.00 0.00 0.00 0.00 0.01 0.00 0.01 0.01 0.01 0.01 0.02 0.01 0.00 0.01 0.02 0.01 0.01 0.01 0.02 0.01 0.00 0.00 0.01 0.00 0.00 0.00 0.00 0.00 0.00 0.00 0.00 0.00 0.00 0.00 0.00 0.00 0.00 0.00 0.00 0.00 0.00 0.00 0.00 0.00 0.00
0.00 0.00 0.00 0.00 0.00 0.00 0.00 0.00 0.00 0.00 0.00 0.00 0.00 0.00 0.00 0.00 0.00 0.00 0.00 0.00 0.00 0.00 0.01 0.02 0.01 0.01 0.01 0.01 0.00 0.00 0.00 0.00 0.00 0.00 0.00 0.00 0.00 0.00 0.00 0.00 0.00 0.00 0.00 0.00 0.00 0.00 0.00 0.00 0.00 0.00 0.00 0.00 0.00 0.00
0.00 0.00 0.00 0.00 0.00 0.00 0.00 0.00 0.00 0.00 0.00 0.00 0.00 0.00 0.00 0.00 0.00 0.00 0.00 0.00 0.00 0.00 0.01 0.00 0.00 0.00 0.00 0.00 0.00 0.00 0.00 0.00 0.00 0.00 0.00 0.00 0.00 0.00 0.00 0.00 0.00 0.00 0.00 0.00 0.00 0.00 0.00 0.00 0.00 0.00 0.00 0.00 0.00 0.01
0.00 0.00 0.00 0.00 0.00 0.00 0.00 0.00 0.00 0.00 0.00 0.00 0.00 0.00 0.00 0.00 0.00 0.00 0.00 0.00 0.00 0.00 0.00 0.00 0.00 0.00 0.00 0.00 0.00 0.00 0.00 0.00 0.00 0.00 0.00 0.00 0.00 0.00 0.00 0.00 0.00 0.00 0.00 0.00 0.00 0.00 0.00 0.00 0.00 0.00 0.00 0.00 0.00 0.01
0.00 0.00 0.00 0.00 0.00 0.00 0.00 0.00 0.00 0.00 0.00 0.00 0.00 0.00 0.00 0.00 0.00 0.00 0.00 0.00 0.00 0.00 0.00 0.00 0.00 0.00 0.00 0.00 0.00 0.00 0.00 0.00 0.00 0.00 0.00 0.00 0.00 0.00 0.00 0.00 0.00 0.00 0.00 0.00 0.00 0.00 0.00 0.00 0.00 0.00 0.00 0.00 0.00 0.00
0.00 0.00 0.00 0.00 0.00 0.00 0.00 0.00 0.00 0.00 0.00 0.00 0.00 0.00 0.00 0.00 0.00 0.00 0.00 0.00 0.00 0.00 0.00 0.00 0.00 0.00 0.00 0.00 0.00 0.00 0.00 0.00 0.00 0.00 0.00 0.00 0.00 0.00 0.00 0.00 0.00 0.00 0.00 0.00 0.00 0.00 0.00 0.00 0.00 0.00 0.01 0.04 0.04 0.02
0.00 0.00 0.00 0.00 0.00 0.00 0.00 0.00 0.00 0.00 0.00 0.00 0.00 0.00 0.00 0.00 0.00 0.00 0.00 0.00 0.00 0.00 0.00 0.00 0.00 0.00 0.00 0.00 0.00 0.00 0.00 0.00 0.00 0.00 0.00 0.00 0.00 0.00 0.00 0.00 0.00 0.00 0.00 0.00 0.00 0.00 0.00 0.00 0.00 0.00 0.00 0.00 0.01 0.01
0.00 0.00 0.00 0.00 0.00 0.00 0.00 0.00 0.00 0.00 0.00 0.00 0.00 0.00 0.00 0.00 0.00 0.00 0.00 0.00 0.00 0.00 0.00 0.00 0.00 0.00 0.00 0.00 0.00 0.00 0.00 0.00 0.00 0.00 0.00 0.00 0.00 0.00 0.00 0.00 0.00 0.00 0.00 0.00 0.00 0.00 0.00 0.00 0.00 0.00 0.00 0.00 0.00 0.00
0.00 0.00 0.00 0.00 0.00 0.00 0.00 0.00 0.00 0.00 0.00 0.00 0.00 0.00 0.00 0.00 0.00 0.00 0.00 0.00 0.00 0.00 0.00 0.00 0.00 0.00 0.00 0.00 0.00 0.00 0.00 0.00 0.00 0.00 0.00 0.00 0.00 0.00 0.00 0.00 0.00 0.00 0.00 0.00 0.00 0.00 0.00 0.00 0.00 0.00 0.00 0.00 0.00 0.00
0.00 0.00 0.00 0.00 0.00 0.00 0.00 0.00 0.00 0.00 0.00 0.00 0.00 0.00 0.00 0.00 0.00 0.00 0.00 0.00 0.00 0.00 0.00 0.00 0.00 0.00 0.00 0.00 0.00 0.00 0.00 0.00 0.00 0.00 0.00 0.00 0.00 0.00 0.00 0.00 0.00 0.00 0.00 0.00 0.00 0.00 0.00 0.00 0.00 0.00 0.00 0.00 0.00 0.00
0.00 0.00 0.01 0.00 0.00 0.00 0.00 0.00 0.01 0.00 0.00 0.00 0.00 0.00 0.00 0.00 0.00 0.00 0.00 0.00 0.00 0.00 0.00 0.00 0.00 0.00 0.00 0.00 0.00 0.00 0.00 0.00 0.00 0.00 0.00 0.00 0.00 0.00 0.00 0.00 0.00 0.00 0.00 0.00 0.00 0.00 0.00 0.00 0.00 0.00 0.00 0.00 0.00 0.00
0.00 0.00 0.01 0.01 0.01 0.00 0.00 0.00 0.01 0.01 0.00 0.00 0.00 0.00 0.00 0.00 0.00 0.00 0.00 0.00 0.00 0.00 0.00 0.00 0.00 0.00 0.00 0.00 0.00 0.00 0.00 0.00 0.00 0.00 0.00 0.00 0.00 0.00 0.00 0.00 0.00 0.00 0.00 0.00 0.00 0.00 0.00 0.00 0.00 0.00 0.00 0.00 0.00 0.00
0.00 0.00 0.00 0.00 0.00 0.00 0.00 0.00 0.00 0.00 0.00 0.00 0.00 0.00 0.00 0.00 0.00 0.00 0.00 0.00 0.00 0.00 0.00 0.00 0.00 0.00 0.00 0.00 0.00 0.00 0.00 0.00 0.00 0.00 0.00 0.00 0.00 0.00 0.00 0.00 0.00 0.00 0.00 0.00 0.00 0.00 0.00 0.00 0.00 0.00 0.00 0.00 0.00 0.00
0.00 0.00 0.00 0.00 0.00 0.00 0.00 0.00 0.00 0.00 0.00 0.00 0.00 0.00 0.00 0.00 0.00 0.00 0.00 0.00 0.00 0.00 0.00 0.00 0.00 0.00 0.00 0.00 0.00 0.00 0.00 0.00 0.00 0.00 0.00 0.00 0.00 0.00 0.00 0.00 0.00 0.00 0.00 0.00 0.00 0.00 0.00 0.00 0.00 0.00 0.00 0.00 0.00 0.00
0.00 0.00 0.00 0.00 0.00 0.00 0.00 0.00 0.00 0.00 0.00 0.00 0.00 0.00 0.00 0.00 0.00 0.00 0.00 0.00 0.00 0.00 0.00 0.00 0.00 0.00 0.00 0.00 0.00 0.00 0.00 0.00 0.00 0.00 0.00 0.00 0.00 0.00 0.00 0.00 0.00 0.00 0.00 0.00 0.00 0.00 0.00 0.00 0.00 0.00 0.00 0.00 0.00 0.00
0.00 0.00 0.00 0.00 0.00 0.00 0.00 0.00 0.00 0.00 0.00 0.00 0.00 0.00 0.00 0.00 0.00 0.00 0.00 0.00 0.00 0.00 0.00 0.00 0.00 0.00 0.00 0.00 0.00 0.00 0.00 0.00 0.00 0.00 0.00 0.00 0.00 0.00 0.00 0.00 0.00 0.00 0.00 0.00 0.00 0.00 0.00 0.00 0.00 0.00 0.00 0.00 0.00 0.00
0.00 0.00 0.00 0.00 0.00 0.00 0.00 0.00 0.00 0.00 0.00 0.00 0.00 0.00 0.00 0.00 0.00 0.00 0.00 0.00 0.00 0.00 0.00 0.00 0.00 0.00 0.00 0.00 0.00 0.00 0.00 0.00 0.00 0.00 0.00 0.00 0.00 0.00 0.00 0.00 0.00 0.00 0.00 0.00 0.00 0.00 0.00 0.00 0.00 0.00 0.00 0.00 0.00 0.00
0.00 0.00 0.00 0.00 0.00 0.00 0.00 0.00 0.00 0.00 0.00 0.00 0.00 0.00 0.00 0.00 0.00 0.00 0.00 0.00 0.00 0.00 0.00 0.00 0.00 0.00 0.00 0.00 0.00 0.00 0.00 0.00 0.00 0.00 0.00 0.00 0.00 0.00 0.00 0.00 0.00 0.00 0.00 0.00 0.00 0.00 0.00 0.00 0.00 0.00 0.00 0.00 0.00 0.00
0.00 0.00 0.00 0.00 0.00 0.00 0.00 0.00 0.00 0.00 0.00 0.00 0.00 0.00 0.00 0.00 0.00 0.00 0.00 0.00 0.00 0.00 0.00 0.00 0.00 0.00 0.00 0.00 0.00 0.00 0.00 0.00 0.00 0.00 0.00 0.00 0.00 0.00 0.00 0.00 0.00 0.00 0.00 0.00 0.00 0.00 0.00 0.00 0.00 0.00 0.00 0.00 0.00 0.00
MSLP
1015.57 1015.15 1014.78 1014.36 1014.10 1013.88 1013.71 1013.53 1013.37 1013.20 1012.95 1012.68 1012.43 1012.37 1012.71 1013.17 1013.63 1014.06 1013.86 1013.93 1013.98 1013.30 1012.80 1012.74 1012.44 1012.48 1012.81 1012.83 1013.46 1014.84 1015.51 1015.90 1016.33 1016.85 1017.61 1017.87 1017.75 1018.03 1018.09 1018.23 1018.07 1017.73 1017.40 1016.76 1016.45 1016.00 1015.83 1016.16 1015.68 1016.21 1016.75 1015.96 1015.36 1014.75
1014.96 1014.77 1014.44 1013.83 1013.43 1013.15 1012.90 1012.66 1012.49 1012.46 1012.23 1012.06 1011.92 1011.93 1012.24 1012.78 1013.21 1013.53 1013.55 1013.75 1013.93 1013.55 1013.17 1013.26 1012.90 1012.83 1012.49 1012.37 1013.24 1014.72 1014.91 1015.38 1016.08 1017.07 1018.31 1018.35 1018.37 1018.47 1018.29 1018.30 1018.85 1018.59 1018.05 1017.73 1017.53 1016.53 1017.23 1017.57 1017.78 1018.05 1017.81 1016.97 1016.18 1015.37
1014.20 1014.00 1013.59 1013.16 1012.76 1012.41 1012.16 1011.94 1011.69 1011.45 1011.46 1011.31 1011.25 1011.51 1011.96 1012.73 1013.02 1013.15 1013.28 1013.62 1013.66 1013.32 1013.11 1012.88 1012.96 1013.03 1012.86 1013.17 1013.02 1013.47 1015.25 1015.79 1016.49 1017.03 1017.83 1018.65 1018.55 1018.59 1018.23 1018.34 1018.46 1018.87 1019.01 1018.73 1018.24 1017.28 1017.67 1018.20 1018.37 1018.45 1018.16 1017.31 1016.44 1015.63
1013.33 1013.15 1012.76 1012.32 1011.94 1011.70 1011.44 1011.18 1011.01 1010.79 1010.71 1010.75 1010.79 1011.51 1012.15 1012.77 1013.05 1013.19 1013.17 1013.33 1013.14 1013.05 1012.78 1013.20 1013.16 1013.43 1013.95 1013.58 1013.41 1013.45 1014.21 1016.06 1016.81 1017.08 1017.68 1018.47 1018.53 1018.99 1018.65 1018.69 1018.51 1018.72 1019.20 1018.97 1018.67 1018.24 1018.22 1018.43 1018.59 1018.65 1018.17 1017.63 1016.62 1015.90
1012.63 1012.32 1011.95 1011.50 1011.16 1010.92 1010.61 1010.34 1010.24 1010.14 1009.97 1010.17 1010.94 1011.80 1012.43 1012.84 1013.03 1013.21 1013.27 1013.34 1013.21 1013.24 1012.79 1013.29 1013.71 1014.44 1014.39 1014.13 1013.82 1014.23 1014.65 1015.48 1016.41 1017.22 1017.83 1018.59 1018.94 1019.18 1019.47 1019.25 1018.38 1018.43 1018.38 1018.85 1018.48 1019.06 1019.07 1018.66 1018.85 1018.62 1018.56 1017.82 1017.01 1016.37
1011.73 1011.38 1010.99 1010.80 1010.53 1010.26 1009.97 1009.91 1009.69 1009.80 1010.29 1010.99 1011.68 1012.27 1012.59 1012.94 1013.05 1013.05 1013.21 1013.33 1013.19 1012.98 1012.53 1013.40 1014.73 1014.68 1014.87 1014.60 1014.58 1015.07 1015.45 1016.02 1016.65 1017.03 1018.21 1019.09 1019.48 1019.45 1019.27 1018.72 1017.93 1018.15 1018.45 1018.60 1018.69 1019.14 1019.13 1019.04 1018.90 1018.78 1018.62 1018.03 1017.24 1016.51
1010.88 1010.56 1010.40 1010.11 1009.86 1009.78 1009.71 1009.67 1010.05 1010.52 1010.86 1011.45 1011.91 1012.47 1013.13 1013.16 1013.04 1013.06 1013.34 1013.39 1013.25 1013.00 1012.53 1013.76 1014.42 1015.12 1015.08 1014.97 1015.24 1015.44 1015.93 1016.39 1016.73 1017.81 1018.19 1018.61 1019.41 1019.48 1019.08 1018.43 1017.71 1018.14 1018.45 1018.77 1018.93 1019.11 1018.90 1018.74 1018.62 1018.64 1018.45 1017.71 1017.08 1016.41
1010.23 1010.11 1009.92 1009.58 1009.34 1009.69 1010.11 1010.47 1010.94 1011.25 1011.64 1012.03 1012.58 1012.91 1013.10 1013.19 1013.27 1013.35 1013.43 1013.28 1013.15 1012.78 1012.83 1013.41 1014.54 1014.96 1015.07 1014.84 1015.20 1015.98 1015.93 1016.44 1017.15 1017.64 1018.23 1018.27 1019.53 1019.28 1018.65 1017.90 1018.05 1018.26 1018.59 1018.83 1018.84 1018.84 1018.61 1018.55 1018.68 1018.31 1018.12 1017.66 1017.11 1016.84
1009.90 1010.00 1010.00 1010.03 1010.36 1010.67 1010.96 1011.31 1011.57 1011.80 1012.15 1012.45 1012.75 1013.02 1013.26 1013.31 1013.37 1013.61 1013.60 1013.41 1013.13 1013.34 1013.03 1013.36 1013.73 1014.05 1014.80 1015.02 1015.37 1015.96 1016.10 1016.34 1017.43 1017.05 1017.33 1017.74 1018.47 1017.93 1017.19 1017.47 1017.85 1018.28 1018.63 1018.74 1018.84 1018.76 1018.38 1018.26 1018.18 1018.01 1017.98 1017.85 1017.63 1017.44
1010.44 1010.63 1010.76 1010.81 1011.07 1011.30 1011.52 1011.82 1012.11 1012.36 1012.67 1012.94 1013.11 1013.11 1013.40 1013.77 1013.76 1013.62 1013.62 1013.40 1013.28 1013.61 1013.69 1013.34 1013.77 1013.77 1014.19 1014.41 1014.96 1015.61 1016.09 1016.28 1016.49 1016.61 1017.20 1017.07 1016.47 1016.60 1017.24 1017.58 1018.15 1018.61 1018.82 1019.03 1018.81 1018.40 1018.19 1017.91 1017.84 1017.95 1017.83 1017.74 1017.71 1017.59
1011.28 1011.30 1011.38 1011.51 1011.66 1011.87 1012.13 1012.43 1012.66 1012.83 1012.88 1012.95 1012.97 1013.35 1013.79 1013.81 1013.61 1013.48 1013.63 1013.63 1013.88 1013.81 1013.81 1013.62 1013.51 1013.39 1013.90 1013.51 1014.07 1015.07 1015.43 1015.89 1015.91 1016.00 1016.27 1016.31 1016.06 1016.33 1017.25 1017.71 1018.28 1018.61 1018.88 1018.92 1018.91 1018.78 1018.55 1018.47 1018.42 1018.18 1018.00 1017.87 1017.73 1017.64
1011.91 1011.97 1011.99 1012.10 1012.24 1012.46 1012.80 1013.00 1012.93 1012.94 1013.06 1013.15 1013.08 1013.44 1013.59 1013.59 1013.57 1013.51 1013.77 1014.16 1013.97 1013.62 1013.68 1013.49 1013.44 1013.39 1013.49 1013.57 1013.59 1014.96 1014.93 1015.55 1015.20 1015.76 1015.99 1015.38 1015.50 1016.44 1017.13 1017.69 1018.15 1018.49 1018.69 1018.99 1019.10 1019.03 1018.93 1018.77 1018.65 1018.52 1018.34 1018.16 1018.04 1017.89
1012.31 1012.38 1012.52 1012.67 1012.82 1012.88 1013.07 1013.13 1013.06 1013.11 1013.22 1013.09 1012.98 1013.17 1013.40 1013.88 1013.68 1013.54 1013.66 1013.83 1013.80 1013.53 1013.57 1013.51 1013.35 1013.20 1013.69 1013.55 1013.53 1014.07 1014.43 1014.81 1015.12 1015.38 1014.95 1014.31 1015.53 1016.69 1017.47 1017.97 1018.29 1018.49 1018.73 1018.98 1019.21 1019.22 1019.09 1018.91 1018.72 1018.58 1018.43 1018.47 1018.23 1018.28
1012.79 1012.85 1012.96 1013.13 1013.16 1013.23 1013.38 1013.38 1013.29 1013.16 1013.13 1013.01 1013.07 1013.57 1013.57 1013.71 1013.57 1013.47 1013.47 1013.40 1013.49 1013.61 1013.66 1013.64 1013.38 1013.36 1013.30 1013.22 1013.00 1013.54 1014.18 1014.65 1014.78 1014.53 1013.83 1014.15 1015.42 1016.55 1017.53 1018.02 1018.20 1018.52 1018.71 1019.12 1019.34 1019.42 1019.41 1019.21 1019.11 1019.05 1018.85 1018.79 1018.81 1018.94
1013.13 1013.24 1013.39 1013.53 1013.54 1013.61 1013.55 1013.41 1013.29 1013.17 1013.14 1013.25 1013.29 1013.47 1013.84 1013.98 1013.73 1013.71 1013.69 1013.61 1013.82 1013.91 1013.73 1013.63 1013.69 1013.63 1013.50 1013.36 1013.30 1013.87 1014.43 1013.95 1013.74 1013.34 1013.32 1014.05 1015.37 1016.43 1017.32 1017.89 1018.32 1018.70 1018.93 1019.15 1019.33 1019.52 1019.69 1019.67 1019.54 1019.53 1019.49 1019.48 1019.50 1019.63
1013.42 1013.49 1013.71 1013.77 1013.88 1013.88 1013.73 1013.48 1013.38 1013.30 1013.43 1013.67 1014.12 1014.19 1014.31 1014.00 1014.04 1014.07 1013.99 1013.89 1013.93 1014.00 1013.83 1013.68 1013.61 1013.89 1013.45 1013.11 1013.23 1013.15 1013.38 1013.14 1012.98 1013.20 1013.85 1014.51 1015.63 1016.59 1017.18 1017.77 1018.23 1018.68 1019.01 1019.32 1019.69 1019.69 1019.82 1019.95 1020.07 1020.17 1020.03 1020.05 1020.09 1020.15
1013.47 1013.72 1013.93 1014.05 1014.10 1014.01 1013.88 1013.74 1013.60 1013.71 1014.06 1014.42 1014.81 1014.86 1014.69 1014.51 1014.37 1014.30 1014.29 1014.06 1014.04 1014.05 1014.07 1013.98 1014.18 1014.47 1014.30 1013.40 1013.12 1012.68 1012.66 1012.94 1013.20 1013.82 1014.39 1014.85 1015.55 1016.61 1017.44 1018.00 1018.39 1018.70 1019.03 1019.33 1019.57 1019.85 1020.05 1020.27 1020.45 1020.51 1020.64 1020.81 1020.63 1020.55
1013.85 1014.06 1014.21 1014.29 1014.25 1014.08 1014.00 1013.95 1013.89 1014.07 1014.45 1014.75 1014.69 1014.74 1014.64 1014.59 1014.47 1014.35 1014.28 1014.19 1014.20 1014.37 1014.85 1015.35 1015.61 1015.21 1015.01 1014.58 1014.07 1013.53 1013.42 1013.74 1014.19 1014.56 1015.11 1015.71 1016.52 1017.25 1017.72 1018.11 1018.44 1018.65 1018.81 1018.98 1019.18 1019.54 1019.80 1019.93 1020.22 1020.49 1020.69 1020.87 1021.08 1021.12
1014.10 1014.25 1014.47 1014.41 1014.31 1014.32 1014.18 1014.31 1014.35 1014.38 1014.77 1014.87 1014.84 1014.71 1014.57 1014.55 1014.59 1014.55 1014.33 1014.09 1014.19 1014.44 1014.97 1015.38 1015.55 1015.53 1015.49 1015.07 1014.38 1014.19 1014.33 1014.69 1014.87 1015.34 1015.82 1016.52 1017.10 1017.62 1018.06 1018.31 1018.54 1018.72 1018.80 1018.86 1019.07 1019.13 1019.33 1019.60 1019.75 1020.07 1020.40 1020.82 1020.78 1020.89
1014.49 1014.65 1014.63 1014.51 1014.38 1014.26 1014.27 1014.58 1014.69 1014.52 1014.69 1014.97 1014.76 1014.58 1014.51 1014.49 1014.51 1014.34 1014.06 1014.03 1014.26 1014.40 1014.72 1015.06 1015.55 1015.71 1015.57 1015.49 1015.24 1015.21 1015.17 1015.30 1015.69 1016.40 1016.99 1017.53 1017.82 1017.83 1018.16 1018.27 1018.40 1018.71 1018.86 1019.03 1019.17 1019.25 1019.27 1019.47 1019.74 1019.96 1020.07 1020.53 1020.76 1020.75
1014.81 1014.88 1014.73 1014.67 1014.52 1014.38 1014.43 1014.54 1014.72 1014.85 1014.78 1014.68 1014.75 1014.56 1014.37 1014.31 1014.21 1014.10 1014.06 1014.14 1014.08 1014.68 1015.23 1015.72 1015.87 1015.87 1015.89 1015.85 1015.81 1016.04 1016.11 1016.16 1016.60 1017.09 1017.50 1017.92 1018.25 1018.41 1018.45 1018.45 1018.50 1018.52 1018.60 1018.85 1018.93 1019.24 1019.24 1019.37 1019.68 1019.83 1020.10 1020.24 1020.57 1020.58
1014.87 1014.90 1014.92 1014.85 1014.61 1014.43 1014.47 1014.69 1014.61 1014.86 1014.78 1014.63 1014.53 1014.45 1014.24 1014.23 1014.33 1014.49 1014.69 1014.34 1014.95 1015.46 1015.67 1015.85 1016.09 1016.11 1016.10 1016.21 1016.35 1016.44 1016.55 1016.80 1017.29 1017.62 1017.81 1017.95 1017.94 1018.05 1018.04 1018.19 1018.31 1018.25 1018.35 1018.50 1018.65 1018.92 1019.37 1019.70 1019.87 1020.05 1020.14 1020.36 1020.52 1020.67
1014.98 1014.97 1014.87 1014.73 1014.57 1014.52 1014.79 1014.74 1014.47 1014.50 1014.31 1014.36 1014.39 1014.20 1014.25 1014.36 1014.53 1014.88 1014.82 1015.16 1015.42 1015.85 1015.94 1015.97 1016.26 1016.39 1016.37 1016.66 1016.78 1017.03 1017.21 1017.17 1017.31 1017.49 1017.80 1017.79 1017.85 1017.99 1018.04 1018.24 1018.23 1018.25 1018.45 1018.83 1018.93 1018.98 1019.36 1019.89 1020.16 1020.12 1020.28 1020.35 1020.45 1020.64
1015.01 1014.90 1014.66 1014.43 1014.37 1014.26 1014.30 1014.07 1014.01 1014.00 1013.98 1013.95 1013.85 1013.83 1014.09 1014.28 1014.53 1014.47 1014.73 1015.10 1015.38 1015.83 1015.83 1016.03 1015.95 1016.03 1016.26 1016.46 1016.53 1016.96 1017.22 1017.27 1017.35 1017.50 1017.54 1017.33 1017.36 1017.84 1018.00 1018.23 1018.43 1018.59 1018.78 1019.09 1019.23 1019.44 1019.65 1019.85 1020.05 1020.18 1020.36 1020.37 1020.41 1020.64
1015.04 1014.79 1014.53 1014.14 1013.89 1013.81 1013.55 1013.29 1013.30 1013.33 1013.10 1013.25 1013.35 1013.49 1013.72 1014.21 1014.05 1014.08 1014.27 1014.75 1015.05 1015.35 1015.69 1015.97 1015.97 1015.89 1016.01 1016.31 1016.64 1016.93 1017.31 1017.03 1016.86 1016.97 1017.52 1017.45 1017.73 1018.02 1018.31 1018.61 1018.88 1019.12 1019.26 1019.28 1019.44 1019.62 1019.91 1020.07 1020.18 1020.32 1020.45 1020.52 1020.57 1020.79
1014.23 1013.82 1013.83 1013.31 1013.24 1013.06 1012.37 1012.06 1011.95 1012.11 1012.23 1012.45 1012.73 1013.20 1013.47 1013.43 1013.45 1013.32 1013.52 1013.87 1014.36 1014.82 1015.22 1015.43 1015.61 1015.83 1015.99 1016.16 1016.25 1016.59 1016.81 1017.06 1017.03 1016.98 1017.63 1017.73 1017.73 1017.75 1018.08 1018.35 1018.73 1019.42 1019.66 1019.58 1019.60 1019.74 1019.97 1020.15 1020.26 1020.43 1020.53 1020.77 1021.01 1020.77
1013.59 1012.85 1012.71 1012.63 1012.27 1012.02 1011.62 1011.33 1011.28 1011.27 1011.33 1011.48 1012.01 1012.62 1012.81 1012.71 1012.51 1012.58 1013.14 1013.57 1013.71 1014.19 1014.73 1015.09 1015.28 1015.34 1015.51 1016.00 1016.55 1016.84 1017.02 1017.15 1017.24 1017.51 1017.77 1018.07 1018.27 1018.43 1018.46 1018.59 1018.88 1019.37 1019.73 1019.78 1019.90 1019.99 1020.15 1020.31 1020.45 1020.64 1020.73 1020.78 1020.87 1020.91
1012.68 1012.17 1011.72 1011.67 1011.56 1011.35 1010.93 1010.66 1010.57 1010.57 1010.72 1011.22 1011.57 1011.82 1011.93 1011.96 1012.21 1012.52 1012.94 1013.33 1013.43 1013.96 1014.57 1015.16 1015.49 1015.59 1015.75 1016.07 1016.41 1016.78 1017.26 1017.59 1017.79 1017.99 1018.24 1018.57 1018.90 1019.05 1019.17 1019.29 1019.49 1019.77 1019.89 1020.01 1020.11 1020.27 1020.35 1020.40 1020.47 1020.48 1020.56 1020.60 1020.74 1020.76
1012.11 1011.41 1011.27 1010.85 1010.76 1010.67 1010.54 1010.41 1010.44 1010.67 1011.03 1011.03 1011.18 1011.48 1011.98 1012.38 1012.73 1012.86 1013.19 1013.33 1013.61 1014.01 1014.57 1015.13 1015.72 1015.93 1016.17 1016.46 1016.79 1016.85 1017.08 1017.17 1017.30 1017.58 1017.87 1018.27 1018.67 1019.15 1019.43 1019.55 1019.80 1019.89 1019.97 1020.09 1020.23 1020.29 1020.34 1020.41 1020.48 1020.54 1020.55 1020.52 1020.45 1020.52
1010.87 1010.75 1010.47 1010.36 1010.29 1010.35 1010.58 1010.69 1010.73 1011.07 1011.33 1011.45 1011.59 1011.99 1012.35 1012.61 1013.05 1013.33 1013.29 1013.36 1013.50 1013.68 1014.05 1014.50 1015.21 1015.38 1015.65 1016.02 1016.59 1017.08 1017.35 1017.22 1017.12 1017.34 1017.68 1018.05 1018.36 1018.81 1019.16 1019.39 1019.57 1019.71 1019.84 1019.87 1019.82 1019.93 1020.34 1020.45 1020.53 1020.46 1020.44 1020.19 1020.09 1019.99
1010.24 1010.21 1010.10 1010.10 1010.21 1010.50 1010.63 1010.82 1011.04 1011.16 1011.33 1011.49 1011.68 1011.69 1012.22 1012.61 1012.96 1013.39 1013.39 1013.34 1013.60 1013.99 1014.27 1014.70 1015.08 1015.29 1015.38 1015.80 1016.15 1016.55 1016.93 1017.38 1017.65 1017.85 1018.01 1018.23 1018.44 1018.66 1018.85 1019.02 1019.13 1019.25 1019.35 1019.38 1019.42 1019.51 1019.56 1019.75 1019.76 1019.78 1019.76 1019.73 1019.67 1019.69
1009.76 1009.62 1009.69 1009.91 1010.25 1010.64 1010.85 1010.68 1010.73 1010.79 1011.03 1011.22 1011.54 1011.85 1012.20 1012.26 1012.58 1013.00 1013.28 1013.58 1013.61 1013.75 1014.09 1014.30 1014.59 1015.05 1015.38 1015.71 1016.07 1016.24 1016.54 1016.67 1017.35 1017.74 1018.07 1018.28 1018.37 1018.49 1018.56 1018.61 1018.67 1018.79 1018.89 1018.93 1018.94 1018.87 1018.95 1019.16 1019.24 1019.31 1019.34 1019.41 1019.47 1019.53
1009.35 1009.39 1009.60 1009.75 1010.14 1010.32 1010.57 1010.48 1010.51 1010.66 1010.85 1010.93 1011.16 1011.33 1011.53 1011.62 1011.84 1012.15 1012.86 1013.06 1013.01 1013.16 1013.60 1013.93 1014.18 1014.62 1015.24 1015.66 1015.94 1016.20 1016.68 1017.01 1017.42 1017.68 1017.92 1018.13 1018.26 1018.36 1018.35 1018.41 1018.48 1018.53 1018.60 1018.64 1018.66 1018.66 1018.75 1018.89 1018.98 1019.11 1019.21 1019.32 1019.41 1019.44
Thickness
5612 5610 5609 5609 5607 5605 5602 5599 5597 5595 5595 5595 5595 5593 5589 5583 5577 5575 5578 5576 5578 5582 5585 5584 5587 5585 5585 5589 5584 5575 5575 5574 5571 5564 5560 5562 5568 5564 5561 5559 5558 5562 5562 5566 5568 5571 5580 5587 5601 5604 5601 5613 5625 5636
5603 5599 5597 5598 5597 5594 5592 5591 5589 5586 5586 5585 5583 5582 5580 5573 5569 5568 5572 5567 5566 5572 5577 5573 5579 5583 5590 5593 5582 5568 5578 5574 5573 5557 5540 5556 5557 5556 5558 5554 5545 5545 5554 5554 5553 5568 5562 5565 5569 5575 5585 5598 5610 5621
5597 5593 5592 5591 5588 5585 5582 5580 5580 5579 5577 5576 5575 5574 5571 5562 5560 5563 5564 5561 5562 5567 5570 5574 5576 5578 5583 5582 5585 5581 5566 5565 5563 5560 5555 5547 5556 5552 5555 5548 5545 5534 5532 5532 5539 5556 5554 5552 5558 5564 5574 5590 5603 5615
5591 5587 5585 5584 5582 5578 5575 5573 5572 5570 5568 5567 5567 5562 5557 5552 5552 5553 5556 5555 5560 5562 5568 5567 5570 5571 5569 5574 5578 5580 5573 5558 5554 5558 5555 5548 5555 5541 5545 5541 5539 5532 5522 5522 5526 5537 5540 5545 5551 5554 5566 5581 5596 5605
5583 5581 5580 5579 5577 5574 5572 5570 5568 5564 5562 5558 5555 5550 5545 5543 5544 5546 5547 5547 5551 5559 5566 5563 5561 5558 5561 5566 5571 5569 5567 5564 5558 5556 5552 5547 5541 5537 5526 5526 5531 5528 5527 5516 5523 5515 5517 5535 5539 5547 5554 5570 5582 5590
5577 5576 5576 5572 5569 5566 5564 5561 5561 5558 5552 5545 5541 5537 5537 5536 5537 5541 5546 5543 5546 5554 5564 5560 5547 5551 5553 5559 5561 5558 5557 5554 5552 5553 5541 5527 5524 5532 5527 5529 5532 5525 5521 5517 5517 5513 5519 5524 5529 5537 5546 5559 5571 5585
5572 5572 5569 5566 5564 5560 5557 5554 5550 5546 5541 5536 5533 5531 5529 5530 5533 5538 5542 5541 5544 5550 5559 5549 5548 5544 5548 5551 5552 5552 5550 5548 5548 5534 5537 5536 5528 5524 5525 5525 5532 5522 5518 5513 5512 5512 5518 5519 5525 5528 5536 5551 5567 5578
5568 5565 5562 5561 5560 5553 5548 5544 5539 5536 5533 5530 5526 5525 5524 5524 5526 5530 5531 5536 5542 5549 5551 5548 5542 5543 5544 5548 5549 5542 5547 5545 5538 5534 5528 5535 5514 5521 5515 5528 5524 5519 5514 5510 5512 5512 5515 5515 5515 5525 5531 5543 5557 5565
5561 5556 5553 5549 5545 5540 5537 5533 5530 5528 5525 5522 5521 5519 5518 5521 5526 5526 5528 5534 5538 5544 5549 5548 5547 5548 5541 5540 5540 5539 5539 5541 5528 5539 5537 5534 5517 5529 5539 5532 5525 5519 5513 5510 5506 5507 5512 5513 5517 5523 5528 5538 5546 5549
5547 5544 5541 5539 5535 5532 5530 5527 5524 5521 5518 5516 5516 5521 5521 5519 5520 5525 5529 5535 5536 5534 5537 5544 5538 5546 5544 5541 5537 5537 5531 5534 5536 5537 5529 5534 5544 5540 5531 5527 5519 5509 5502 5497 5502 5510 5514 5518 5518 5522 5529 5535 5539 5542
5537 5535 5534 5532 5529 5527 5524 5521 5519 5517 5518 5519 5522 5521 5517 5517 5523 5526 5526 5531 5527 5532 5531 5536 5540 5542 5539 5545 5540 5535 5535 5530 5533 5537 5534 5534 5538 5538 5524 5522 5513 5509 5503 5501 5501 5503 5509 5511 5515 5521 5526 5532 5538 5542
5532 5529 5529 5527 5525 5522 5520 5518 5519 5520 5520 5521 5522 5518 5519 5522 5524 5528 5523 5519 5525 5532 5531 5534 5536 5538 5539 5538 5541 5528 5534 5527 5535 5532 5530 5540 5542 5527 5523 5518 5512 5509 5507 5502 5500 5500 5502 5506 5511 5515 5521 5526 5529 5534
5529 5527 5526 5525 5524 5522 5520 5519 5519 5519 5518 5520 5524 5524 5523 5517 5517 5524 5515 5521 5521 5527 5528 5530 5534 5536 5530 5535 5538 5534 5532 5531 5532 5528 5536 5548 5528 5519 5515 5511 5508 5508 5505 5503 5498 5498 5499 5501 5506 5511 5515 5516 5521 5523
5526 5526 5525 5523 5521 5520 5518 5517 5517 5517 5519 5524 5523 5506 5523 5520 5523 5524 5525 5526 5524 5524 5524 5522 5530 5531 5532 5534 5538 5535 5529 5525 5523 5530 5539 5539 5524 5516 5509 5507 5505 5503 5502 5496 5494 5493 5493 5495 5497 5498 5502 5505 5506 5506
5525 5524 5522 5519 5518 5516 5515 5515 5515 5515 5517 5517 5519 5518 5516 5511 5515 5514 5515 5518 5515 5514 5519 5523 5520 5526 5524 5527 5529 5523 5517 5522 5529 5534 5542 5534 5519 5511 5504 5501 5497 5494 5494 5493 5492 5489 5486 5486 5488 5488 5490 5492 5494 5494
5523 5522 5519 5516 5513 5512 5511 5512 5512 5512 5510 5509 5501 5505 5501 5505 5505 5505 5507 5509 5509 5508 5513 5516 5520 5518 5523 5524 5523 5526 5524 5523 5536 5534 5525 5517 5509 5503 5500 5495 5492 5489 5486 5484 5480 5483 5482 5480 5477 5477 5478 5480 5482 5483
5522 5520 5516 5512 5510 5509 5508 5508 5508 5506 5502 5497 5491 5490 5490 5492 5493 5495 5494 5498 5498 5501 5504 5506 5511 5503 5501 5520 5521 5525 5529 5528 5525 5513 5509 5510 5504 5495 5488 5484 5482 5480 5478 5475 5474 5473 5472 5471 5469 5468 5467 5467 5470 5473
5519 5516 5513 5510 5509 5508 5508 5506 5506 5504 5501 5494 5497 5493 5492 5490 5491 5492 5489 5489 5490 5486 5482 5479 5474 5482 5487 5494 5492 5502 5504 5500 5499 5498 5495 5492 5486 5480 5477 5475 5473 5471 5471 5470 5469 5466 5465 5466 5465 5463 5461 5462 5461 5462
5518 5515 5512 5511 5510 5508 5508 5505 5501 5500 5493 5491 5488 5489 5488 5487 5482 5480 5481 5487 5485 5482 5475 5472 5472 5475 5471 5476 5489 5490 5488 5487 5488 5486 5483 5478 5475 5471 5466 5465 5463 5462 5463 5463 5462 5465 5463 5461 5462 5460 5458 5456 5458 5458
5516 5514 5513 5512 5511 5513 5512 5505 5499 5501 5499 5491 5489 5491 5487 5486 5478 5479 5487 5486 5480 5484 5479 5477 5470 5469 5472 5472 5475 5475 5480 5480 5477 5471 5467 5463 5461 5462 5461 5461 5460 5455 5453 5452 5453 5451 5455 5454 5453 5453 5453 5449 5449 5451
5516 5514 5513 5512 5512 5511 5510 5506 5501 5497 5495 5496 5489 5489 5492 5489 5489 5487 5487 5483 5488 5479 5475 5473 5471 5472 5470 5470 5472 5470 5469 5470 5463 5461 5456 5453 5451 5453 5453 5452 5450 5450 5451 5448 5448 5444 5444 5445 5443 5443 5443 5444 5442 5444
5517 5515 5513 5512 5513 5513 5512 5503 5505 5497 5498 5495 5494 5491 5492 5491 5488 5484 5478 5484 5477 5474 5472 5472 5469 5467 5468 5467 5465 5466 5465 5463 5458 5454 5451 5450 5455 5453 5453 5450 5448 5449 5447 5444 5443 5440 5435 5433 5433 5433 5434 5433 5432 5434
5516 5515 5515 5515 5516 5508 5508 5504 5509 5502 5504 5500 5495 5496 5493 5489 5486 5479 5481 5476 5474 5467 5466 5467 5463 5462 5464 5460 5460 5458 5457 5459 5458 5456 5451 5451 5450 5447 5446 5443 5443 5442 5439 5434 5433 5433 5430 5421 5421 5426 5425 5428 5430 5429
5517 5519 5521 5523 5520 5518 5515 5516 5512 5509 5505 5503 5502 5500 5495 5492 5485 5487 5482 5477 5477 5469 5470 5467 5470 5469 5466 5464 5464 5460 5456 5455 5454 5451 5450 5452 5451 5443 5442 5438 5436 5433 5430 5425 5423 5421 5420 5419 5415 5417 5416 5419 5422 5422
5520 5522 5520 5513 5526 5523 5522 5521 5517 5514 5515 5510 5507 5504 5499 5490 5494 5491 5488 5482 5480 5478 5473 5470 5470 5471 5470 5466 5463 5460 5454 5458 5460 5458 5449 5449 5443 5439 5436 5431 5427 5424 5421 5419 5416 5414 5410 5409 5408 5407 5407 5409 5412 5413
5527 5535 5525 5535 5531 5529 5536 5534 5530 5526 5524 5518 5514 5506 5501 5501 5499 5499 5498 5494 5489 5483 5479 5477 5475 5472 5470 5469 5469 5466 5463 5458 5459 5460 5450 5447 5446 5444 5439 5435 5431 5422 5416 5415 5413 5410 5406 5403 5401 5400 5400 5398 5394 5406
5536 5543 5541 5539 5541 5542 5541 5542 5539 5537 5533 5530 5521 5512 5510 5509 5511 5512 5502 5497 5496 5492 5487 5484 5481 5480 5478 5473 5466 5463 5462 5460 5459 5457 5451 5447 5443 5440 5438 5435 5431 5424 5418 5415 5411 5408 5405 5400 5397 5394 5394 5394 5395 5397
5547 5550 5553 5551 5547 5547 5548 5548 5547 5545 5542 5533 5529 5523 5523 5522 5520 5513 5508 5503 5502 5497 5492 5486 5482 5481 5479 5476 5472 5467 5462 5459 5457 5454 5450 5446 5441 5438 5434 5431 5428 5421 5420 5416 5413 5410 5406 5404 5401 5400 5398 5397 5396 5398
5548 5556 5555 5557 5555 5554 5552 5552 5550 5546 5540 5540 5537 5533 5527 5519 5514 5513 5508 5506 5504 5500 5495 5490 5483 5480 5478 5475 5473 5472 5469 5468 5466 5462 5458 5453 5448 5442 5436 5433 5428 5426 5423 5420 5414 5414 5413 5410 5408 5405 5404 5404 5404 5403
5563 5562 5562 5561 5560 5558 5553 5550 5549 5542 5538 5536 5533 5527 5524 5520 5514 5509 5510 5510 5509 5507 5504 5500 5492 5490 5488 5486 5479 5474 5471 5472 5471 5467 5462 5457 5454 5448 5443 5439 5435 5432 5429 5427 5425 5423 5414 5413 5411 5412 5412 5414 5414 5415
5568 5566 5565 5563 5561 5556 5554 5550 5546 5544 5541 5539 5535 5535 5529 5525 5521 5514 5515 5515 5512 5508 5505 5500 5496 5495 5495 5491 5487 5483 5479 5475 5471 5469 5466 5463 5459 5455 5451 5447 5444 5440 5438 5436 5434 5431 5429 5427 5426 5425 5425 5425 5425 5424
5572 5572 5570 5564 5561 5555 5552 5554 5553 5551 5547 5545 5541 5536 5533 5532 5527 5523 5519 5516 5515 5513 5509 5508 5505 5500 5499 5497 5493 5491 5486 5485 5478 5474 5470 5468 5466 5463 5460 5457 5455 5451 5449 5447 5445 5444 5441 5438 5438 5437 5436 5435 5434 5434
5574 5573 5568 5566 5562 5559 5556 5557 5554 5551 5549 5548 5546 5544 5542 5540 5536 5534 5526 5524 5524 5522 5517 5515 5513 5510 5504 5501 5498 5495 5487 5486 5481 5478 5475 5473 5471 5469 5468 5466 5464 5462 5459 5457 5455 5453 5452 5450 5449 5447 5446 5444 5444 5444